This is the latest recevied weather packets stored in our database for station/object BG5HLN-13. If no packets are shown the sender has not sent any weather packets the latest 10 day(s).
| Time | Temp. | Humidity | Pressure | Rain* | Wind** | Luminosity | Snow |
|---|---|---|---|---|---|---|---|
| 1788590009 | 34.44° C | 74% | 1007.5 hPa | 0 mm | - | - | - |
| 1788589410 | 34.44° C | 73% | 1007.7 hPa | 0 mm | - | - | - |
| 1788588810 | 34.44° C | 73% | 1007.7 hPa | 0 mm | - | - | - |
| 1788588209 | 34.44° C | 72% | 1007.8 hPa | 0 mm | - | - | - |
| 1788587609 | 33.89° C | 73% | 1007.9 hPa | 0 mm | - | - | - |
| 1788587009 | 33.33° C | 74% | 1007.9 hPa | 0 mm | - | - | - |
| 1788586409 | 33.33° C | 77% | 1008 hPa | 0 mm | - | - | - |
| 1788585809 | 32.78° C | 78% | 1008.1 hPa | 0 mm | - | - | - |
| 1788585208 | 32.22° C | 77% | 1008.1 hPa | 0 mm | - | - | - |
| 1788584609 | 32.22° C | 77% | 1008 hPa | 0 mm | - | - | - |
| 1788584008 | 32.22° C | 76% | 1008.2 hPa | 0 mm | - | - | - |
| 1788583409 | 31.67° C | 76% | 1008.2 hPa | 0 mm | - | - | - |
| 1788582809 | 31.67° C | 77% | 1008.3 hPa | 0 mm | - | - | - |
| 1788582209 | 31.67° C | 79% | 1008.4 hPa | 0 mm | - | - | - |
| 1788581609 | 31.11° C | 79% | 1008.7 hPa | 0 mm | - | - | - |
| 1788581009 | 31.11° C | 80% | 1008.7 hPa | 0 mm | - | - | - |
| 1788580408 | 30.56° C | 80% | 1008.7 hPa | 0 mm | - | - | - |
| 1788579808 | 31.11° C | 83% | 1008.8 hPa | 0 mm | - | - | - |
| 1788579209 | 30.56° C | 83% | 1008.9 hPa | 0 mm | - | - | - |
| 1788578609 | 30.56° C | 83% | 1009 hPa | 0 mm | - | - | - |
| 1788578015 | 30.56° C | 83% | 1009.3 hPa | 0 mm | - | - | - |
| 1788577408 | 31.11° C | 82% | 1009.4 hPa | 0 mm | - | - | - |
| 1788576809 | 31.67° C | 79% | 1009.4 hPa | 0 mm | - | - | - |
| 1788576208 | 32.22° C | 79% | 1009.2 hPa | 0 mm | - | - | - |
| 1788575608 | 32.22° C | 79% | 1009.2 hPa | 0 mm | - | - | - |
* Rain latest hour (hover to see other rain measurements)
** Current wind speed in m/s (hover to see current wind gust speed)